{"data":{"norad_id":58021,"epoch":"2026-09-21T22:32:14.973216Z","epoch_age_seconds":109315,"freshness":"FRESH","line1":"1 58021U 23155F   26264.93906219  .00006160  00000+0  26257-3 0  9998","line2":"2 58021  97.5356 341.9227 0003453 249.8196 110.2670 15.23310301162909","mean_motion":15.23310301,"eccentricity":0.0003453,"inclination_deg":97.5356,"raan_deg":341.9227,"arg_perigee_deg":249.8196,"mean_anomaly_deg":110.267,"bstar":0.00026257,"rev_number":16290,"period_min":94.530969760704,"perigee_km":493.49037172348,"apogee_km":498.23755678939,"semimajor_km":6874.0009642564,"source":"CELESTRAK","updated_at":"2026-09-22T09:00:26.441149Z"}}